sat.trackr.live / text

‹ back to catalog

STARLINK-11241 [DTC]

NORAD 60936 · 2024-155N

PAYLOAD ACTIVE UNKNOWN

§ Identity

Operator
Country
US
Launch date
2024-08-31
Launch site
AFWTR
Launch vehicle
Mass (kg)
RCS (m²)

Purposes: comms

External: N2YO · Heavens-Above · Gunter

§ Orbital elements

Epoch: 2026-05-24T19:17:37.270176Z

Period
91.74 min
Inclination
53.1596°
Eccentricity
0.0000871
Mean motion
15.69700273 rev/d
Perigee alt
359.2 km
Apogee alt
360.3 km
Semi-major
6,737.9 km
B*
1.4853e-5
RAAN
326.2786°
Arg perigee
56.2370°
Mean anomaly
303.8730°
Rev number
10,035

§ Raw data

STARLINK-11241 [DTC]1 60936U 24155N   26144.80390359  .00001211  00000+0  14853-4 0  99942 60936  53.1596 326.2786 0000871  56.2370 303.8730 15.69700273100351

JSON: /api/v1/satellites/60936 · /tle

For live sub-satellite position, see the globe view (requires WebGL).

§ Visibility from observer

Set your observer location to see the next 7 days of passes ≥ 10°. The values pass through the URL so the page stays shareable.

No JS? Fill the form by hand. The geolocation button needs JavaScript.